Time,TemperatureF,DewpointF,PressureIn,WindDirection,WindDirectionDegrees,WindSpeedMPH,WindSpeedGustMPH,Humidity,HourlyPrecipIn,Conditions,Clouds,dailyrainin,SoftwareType,DateUTC
2013-03-15 00:00:00,36.1,19.3,30.07,South,180,3.5,3.5,50,0.00,CLR,,0.00,WeatherDisplay:10.37,2013-03-15 04:00:00,
2013-03-15 00:02:00,36.1,19.3,30.07,South,180,3.5,3.5,50,0.00,CLR,,0.00,WeatherDisplay:10.37,2013-03-15 04:02:00,
2013-03-15 00:07:00,36.1,19.3,30.08,South,180,3.5,3.5,50,0.00,CLR,,0.00,WeatherDisplay:10.37,2013-03-15 04:07:00,
2013-03-15 00:12:00,36.1,19.3,30.08,South,180,3.5,3.5,50,0.00,CLR,,0.00,WeatherDisplay:10.37,2013-03-15 04:12:00,
2013-03-15 00:17:00,36.3,19.4,30.08,South,180,3.5,3.5,50,0.00,CLR,,0.00,WeatherDisplay:10.37,2013-03-15 04:17:00,
2013-03-15 00:22:00,36.1,19.3,30.08,SE,135,3.5,3.5,50,0.00,CLR,,0.00,WeatherDisplay:10.37,2013-03-15 04:22:00,
2013-03-15 00:27:00,36.1,19.3,30.07,NE,45,5.8,5.8,50,0.00,CLR,,0.00,WeatherDisplay:10.37,2013-03-15 04:27:00,
2013-03-15 00:32:00,36.3,19.4,30.07,SE,135,4.6,4.6,50,0.00,CLR,,0.00,WeatherDisplay:10.37,2013-03-15 04:32:00,
2013-03-15 00:37:00,36.1,19.3,30.07,SE,135,4.6,4.6,50,0.00,CLR,,0.00,WeatherDisplay:10.37,2013-03-15 04:37:00,
2013-03-15 00:42:00,36.1,19.3,30.07,South,180,3.5,3.5,50,0.00,CLR,,0.00,WeatherDisplay:10.37,2013-03-15 04:42:00,
2013-03-15 00:47:00,36.1,19.7,30.08,SE,135,3.5,3.5,51,0.00,CLR,,0.00,WeatherDisplay:10.37,2013-03-15 04:47:00,
2013-03-15 00:52:00,35.8,19.4,30.07,South,180,3.5,3.5,51,0.00,CLR,,0.00,WeatherDisplay:10.37,2013-03-15 04:52:00,
2013-03-15 00:57:00,35.8,19.4,30.07,South,180,4.6,4.6,51,0.00,CLR,,0.00,WeatherDisplay:10.37,2013-03-15 04:57:00,
2013-03-15 01:02:00,36.0,19.6,30.07,SE,135,5.8,5.8,51,0.00,CLR,,0.00,WeatherDisplay:10.37,2013-03-15 05:02:00,
2013-03-15 01:07:00,36.1,19.7,30.08,SE,135,4.6,4.6,51,0.00,CLR,,0.00,WeatherDisplay:10.37,2013-03-15 05:07:00,
2013-03-15 01:12:00,36.0,19.6,30.07,South,180,3.5,3.5,51,0.00,CLR,,0.00,WeatherDisplay:10.37,2013-03-15 05:12:00,
2013-03-15 01:17:00,35.8,19.9,30.07,South,180,3.5,3.5,52,0.00,CLR,,0.00,WeatherDisplay:10.37,2013-03-15 05:17:00,
2013-03-15 01:22:00,35.6,19.7,30.07,South,180,5.8,5.8,52,0.00,CLR,,0.00,WeatherDisplay:10.37,2013-03-15 05:22:00,
2013-03-15 01:27:00,35.6,19.7,30.07,SE,135,4.6,4.6,52,0.00,CLR,,0.00,WeatherDisplay:10.37,2013-03-15 05:27:00,
2013-03-15 01:32:00,35.6,19.7,30.07,SSE,158,6.9,6.9,52,0.00,CLR,,0.00,WeatherDisplay:10.37,2013-03-15 05:32:00,
2013-03-15 01:37:00,35.6,20.1,30.06,South,180,4.6,4.6,53,0.00,CLR,,0.00,WeatherDisplay:10.37,2013-03-15 05:37:00,
2013-03-15 01:42:00,35.6,20.1,30.06,SE,135,5.8,5.8,53,0.00,CLR,,0.00,WeatherDisplay:10.37,2013-03-15 05:42:00,
2013-03-15 01:47:00,35.6,20.1,30.06,South,180,5.8,5.8,53,0.00,CLR,,0.00,WeatherDisplay:10.37,2013-03-15 05:47:00,
2013-03-15 01:52:00,35.6,20.1,30.06,SSE,158,4.6,4.6,53,0.00,CLR,,0.00,WeatherDisplay:10.37,2013-03-15 05:52:00,
2013-03-15 01:57:00,35.4,20.0,30.06,SE,135,5.8,5.8,53,0.00,CLR,,0.00,WeatherDisplay:10.37,2013-03-15 05:57:00,
2013-03-15 02:02:00,35.4,20.0,30.06,SE,135,5.8,5.8,53,0.00,CLR,,0.00,WeatherDisplay:10.37,2013-03-15 06:02:00,
2013-03-15 02:07:00,35.4,20.4,30.06,SE,135,3.5,3.5,54,0.00,CLR,,0.00,WeatherDisplay:10.37,2013-03-15 06:07:00,
2013-03-15 02:12:00,35.4,20.0,30.06,South,180,5.8,5.8,53,0.00,CLR,,0.00,WeatherDisplay:10.37,2013-03-15 06:12:00,
2013-03-15 02:17:00,35.4,20.4,30.06,South,180,5.8,5.8,54,0.00,CLR,,0.00,WeatherDisplay:10.37,2013-03-15 06:17:00,
2013-03-15 02:23:00,35.2,20.2,30.06,SSE,158,5.8,5.8,54,0.00,CLR,,0.00,WeatherDisplay:10.37,2013-03-15 06:23:00,
2013-03-15 02:28:00,35.2,20.2,30.05,South,180,4.6,4.6,54,0.00,CLR,,0.00,WeatherDisplay:10.37,2013-03-15 06:28:00,
2013-03-15 02:33:00,35.1,20.1,30.05,South,180,4.6,4.6,54,0.00,CLR,,0.00,WeatherDisplay:10.37,2013-03-15 06:33:00,
2013-03-15 02:38:00,35.2,20.2,30.05,South,180,4.6,4.6,54,0.00,CLR,,0.00,WeatherDisplay:10.37,2013-03-15 06:38:00,
2013-03-15 02:43:00,35.2,20.2,30.05,South,180,4.6,4.6,54,0.00,CLR,,0.00,WeatherDisplay:10.37,2013-03-15 06:43:00,
2013-03-15 02:48:00,35.2,20.2,30.06,SE,135,3.5,3.5,54,0.00,CLR,,0.00,WeatherDisplay:10.37,2013-03-15 06:48:00,
2013-03-15 02:53:00,35.2,20.2,30.05,SE,135,5.8,5.8,54,0.00,CLR,,0.00,WeatherDisplay:10.37,2013-03-15 06:53:00,
2013-03-15 02:58:00,35.1,20.1,30.06,East,90,2.3,0.0,54,0.00,CLR,,0.00,WeatherDisplay:10.37,2013-03-15 06:58:00,
2013-03-15 03:03:00,34.7,19.7,30.06,NW,315,3.5,0.0,54,0.00,CLR,,0.00,WeatherDisplay:10.37,2013-03-15 07:03:00,
2013-03-15 03:08:00,34.5,20.0,30.06,NW,315,3.5,3.5,55,0.00,CLR,,0.00,WeatherDisplay:10.37,2013-03-15 07:08:00,
2013-03-15 03:13:00,34.0,20.3,30.05,NW,315,2.3,2.3,57,0.00,CLR,,0.00,WeatherDisplay:10.37,2013-03-15 07:13:00,
2013-03-15 03:18:00,33.4,20.2,30.05,North,0,2.3,2.3,58,0.00,CLR,,0.00,WeatherDisplay:10.37,2013-03-15 07:18:00,
2013-03-15 03:23:00,33.3,20.1,30.06,North,0,1.1,0.0,58,0.00,CLR,,0.00,WeatherDisplay:10.37,2013-03-15 07:23:00,
2013-03-15 03:28:00,32.9,20.1,30.06,North,0,1.1,1.1,59,0.00,CLR,,0.00,WeatherDisplay:10.37,2013-03-15 07:28:00,
2013-03-15 03:33:00,32.7,20.0,30.06,South,180,1.1,0.0,59,0.00,CLR,,0.00,WeatherDisplay:10.37,2013-03-15 07:33:00,
2013-03-15 03:38:00,32.4,20.4,30.06,North,0,1.1,1.1,61,0.00,CLR,,0.00,WeatherDisplay:10.37,2013-03-15 07:38:00,
2013-03-15 03:43:00,32.2,20.2,30.06,North,0,1.1,1.1,61,0.00,CLR,,0.00,WeatherDisplay:10.37,2013-03-15 07:43:00,
2013-03-15 03:48:00,32.0,20.1,30.06,North,0,1.1,0.0,61,0.00,CLR,,0.00,WeatherDisplay:10.37,2013-03-15 07:48:00,
2013-03-15 03:53:00,31.6,20.1,30.05,NW,315,1.1,1.1,62,0.00,CLR,,0.00,WeatherDisplay:10.37,2013-03-15 07:53:00,
2013-03-15 03:58:00,31.5,20.3,30.05,NW,315,2.3,2.3,63,0.00,CLR,,0.00,WeatherDisplay:10.37,2013-03-15 07:58:00,
2013-03-15 04:03:00,31.3,20.1,30.05,North,0,1.6,1.6,63,0.00,CLR,,0.00,WeatherDisplay:10.37,2013-03-15 08:03:00,
2013-03-15 04:08:00,31.1,20.0,30.04,North,0,1.1,0.0,63,0.00,CLR,,0.00,WeatherDisplay:10.37,2013-03-15 08:08:00,
2013-03-15 04:13:00,30.7,20.0,30.04,North,0,1.1,0.0,64,0.00,CLR,,0.00,WeatherDisplay:10.37,2013-03-15 08:13:00,
2013-03-15 04:19:00,30.6,19.8,30.04,North,0,1.1,0.0,64,0.00,CLR,,0.00,WeatherDisplay:10.37,2013-03-15 08:19:00,
2013-03-15 04:24:00,30.2,19.8,30.04,NW,315,1.1,0.0,65,0.00,CLR,,0.00,WeatherDisplay:10.37,2013-03-15 08:24:00,
2013-03-15 04:29:00,29.8,20.2,30.03,NW,315,2.3,2.3,67,0.00,CLR,,0.00,WeatherDisplay:10.37,2013-03-15 08:29:00,
2013-03-15 04:34:00,29.5,20.2,30.04,NW,315,1.1,1.1,68,0.00,CLR,,0.00,WeatherDisplay:10.37,2013-03-15 08:34:00,
2013-03-15 04:39:00,29.3,19.7,30.04,NE,45,1.1,1.1,67,0.00,CLR,,0.00,WeatherDisplay:10.37,2013-03-15 08:39:00,
2013-03-15 04:44:00,29.3,19.7,30.04,NW,315,1.1,1.1,67,0.00,CLR,,0.00,WeatherDisplay:10.37,2013-03-15 08:44:00,
2013-03-15 04:49:00,29.3,20.0,30.04,North,0,0.0,0.0,68,0.00,CLR,,0.00,WeatherDisplay:10.37,2013-03-15 08:49:00,
2013-03-15 04:54:00,28.9,19.7,30.04,SE,135,0.0,0.0,68,0.00,CLR,,0.00,WeatherDisplay:10.37,2013-03-15 08:54:00,
2013-03-15 04:59:00,28.6,19.7,30.04,NW,315,1.1,0.0,69,0.00,CLR,,0.00,WeatherDisplay:10.37,2013-03-15 08:59:00,
2013-03-15 05:04:00,28.6,20.0,30.04,NW,315,1.1,0.0,70,0.00,CLR,,0.00,WeatherDisplay:10.37,2013-03-15 09:04:00,
2013-03-15 05:09:00,28.6,20.4,30.04,West,270,2.3,0.0,71,0.00,CLR,,0.00,WeatherDisplay:10.37,2013-03-15 09:09:00,
2013-03-15 05:14:00,28.2,20.0,30.03,NW,315,2.3,2.3,71,0.00,CLR,,0.00,WeatherDisplay:10.37,2013-03-15 09:14:00,
2013-03-15 05:19:00,28.0,20.2,30.03,West,270,1.1,0.0,72,0.00,CLR,,0.00,WeatherDisplay:10.37,2013-03-15 09:19:00,
2013-03-15 05:24:00,28.0,20.2,30.03,NE,45,1.1,1.1,72,0.00,CLR,,0.00,WeatherDisplay:10.37,2013-03-15 09:24:00,
2013-03-15 05:29:00,28.2,20.0,30.03,South,180,0.0,0.0,71,0.00,CLR,,0.00,WeatherDisplay:10.37,2013-03-15 09:29:00,
2013-03-15 05:34:00,27.9,20.0,30.03,North,0,1.1,0.0,72,0.00,CLR,,0.00,WeatherDisplay:10.37,2013-03-15 09:34:00,
2013-03-15 05:39:00,27.7,20.2,30.03,NW,315,0.0,0.0,73,0.00,CLR,,0.00,WeatherDisplay:10.37,2013-03-15 09:39:00,
2013-03-15 05:44:00,27.7,20.2,30.03,North,0,0.0,0.0,73,0.00,CLR,,0.00,WeatherDisplay:10.37,2013-03-15 09:44:00,
2013-03-15 05:49:00,27.7,20.2,30.03,NW,315,3.5,3.5,73,0.00,CLR,,0.00,WeatherDisplay:10.37,2013-03-15 09:49:00,
2013-03-15 05:54:00,27.9,20.3,30.03,NW,315,1.1,0.0,73,0.00,CLR,,0.00,WeatherDisplay:10.37,2013-03-15 09:54:00,
2013-03-15 05:59:00,28.0,20.5,30.03,NW,315,2.3,0.0,73,0.00,CLR,,0.00,WeatherDisplay:10.37,2013-03-15 09:59:00,
2013-03-15 06:04:00,28.0,20.5,30.03,North,0,0.0,0.0,73,0.00,CLR,,0.00,WeatherDisplay:10.37,2013-03-15 10:04:00,
2013-03-15 06:09:00,28.0,20.2,30.03,NW,315,0.0,0.0,72,0.00,CLR,,0.00,WeatherDisplay:10.37,2013-03-15 10:09:00,
2013-03-15 06:14:00,27.7,20.2,30.03,South,180,0.0,0.0,73,0.00,CLR,,0.00,WeatherDisplay:10.37,2013-03-15 10:14:00,
2013-03-15 06:19:00,27.3,20.1,30.03,NW,315,1.1,0.0,74,0.00,CLR,,0.00,WeatherDisplay:10.37,2013-03-15 10:19:00,
2013-03-15 06:24:00,27.5,20.3,30.03,NW,315,1.1,0.0,74,0.00,CLR,,0.00,WeatherDisplay:10.37,2013-03-15 10:24:00,
2013-03-15 06:29:00,27.5,20.0,30.03,NW,315,0.0,0.0,73,0.00,CLR,,0.00,WeatherDisplay:10.37,2013-03-15 10:29:00,
2013-03-15 06:34:00,27.5,20.0,30.03,NE,45,0.0,0.0,73,0.00,CLR,,0.00,WeatherDisplay:10.37,2013-03-15 10:34:00,
2013-03-15 06:39:00,27.9,20.3,30.03,NE,45,1.1,0.0,73,0.00,CLR,,0.00,WeatherDisplay:10.37,2013-03-15 10:39:00,
2013-03-15 06:44:00,27.9,20.0,30.03,NE,45,0.0,0.0,72,0.00,CLR,,0.00,WeatherDisplay:10.37,2013-03-15 10:44:00,
2013-03-15 06:49:00,27.9,20.0,30.03,NE,45,1.1,0.0,72,0.00,CLR,,0.00,WeatherDisplay:10.37,2013-03-15 10:49:00,
2013-03-15 06:54:00,27.9,19.7,30.03,NE,45,1.1,0.0,71,0.00,CLR,,0.00,WeatherDisplay:10.37,2013-03-15 10:54:00,
2013-03-15 06:59:00,28.0,19.8,30.03,NE,45,0.0,0.0,71,0.00,CLR,,0.00,WeatherDisplay:10.37,2013-03-15 10:59:00,
2013-03-15 07:04:00,28.0,19.5,30.03,NE,45,0.0,0.0,70,0.00,CLR,,0.00,WeatherDisplay:10.37,2013-03-15 11:04:00,
2013-03-15 07:09:00,27.9,19.7,30.03,NE,45,0.0,0.0,71,0.00,CLR,,0.00,WeatherDisplay:10.37,2013-03-15 11:09:00,
2013-03-15 07:14:00,27.5,19.7,30.03,NE,45,1.1,1.1,72,0.00,CLR,,0.00,WeatherDisplay:10.37,2013-03-15 11:14:00,
2013-03-15 07:19:00,27.7,20.2,30.03,NE,45,1.1,0.0,73,0.00,CLR,,0.00,WeatherDisplay:10.37,2013-03-15 11:19:00,
2013-03-15 07:24:00,27.7,19.8,30.03,NE,45,0.0,0.0,72,0.00,CLR,,0.00,WeatherDisplay:10.37,2013-03-15 11:24:00,
2013-03-15 07:29:00,27.7,19.8,30.03,NE,45,0.0,0.0,72,0.00,CLR,,0.00,WeatherDisplay:10.37,2013-03-15 11:29:00,
2013-03-15 07:34:00,27.9,20.0,30.03,NW,315,0.0,0.0,72,0.00,CLR,,0.00,WeatherDisplay:10.37,2013-03-15 11:34:00,
2013-03-15 07:39:00,27.9,19.7,30.03,North,0,1.1,0.0,71,0.00,CLR,,0.00,WeatherDisplay:10.37,2013-03-15 11:39:00,
2013-03-15 07:44:00,28.0,20.2,30.02,NW,315,1.1,0.0,72,0.00,CLR,,0.00,WeatherDisplay:10.37,2013-03-15 11:44:00,
2013-03-15 07:49:00,28.2,20.3,30.02,NW,315,1.1,0.0,72,0.00,CLR,,0.00,WeatherDisplay:10.37,2013-03-15 11:49:00,
2013-03-15 07:54:00,28.2,20.3,30.03,NW,315,0.0,0.0,72,0.00,CLR,,0.00,WeatherDisplay:10.37,2013-03-15 11:54:00,
2013-03-15 07:59:00,28.2,20.3,30.02,NW,315,0.0,0.0,72,0.00,CLR,,0.00,WeatherDisplay:10.37,2013-03-15 11:59:00,
2013-03-15 08:04:00,28.2,20.3,30.03,NW,315,0.0,0.0,72,0.00,CLR,,0.00,WeatherDisplay:10.37,2013-03-15 12:04:00,
2013-03-15 08:09:00,28.4,20.5,30.02,NW,315,0.0,0.0,72,0.00,CLR,,0.00,WeatherDisplay:10.37,2013-03-15 12:09:00,
2013-03-15 08:14:00,28.8,20.9,30.03,NW,315,0.0,0.0,72,0.00,CLR,,0.00,WeatherDisplay:10.37,2013-03-15 12:14:00,
2013-03-15 08:19:00,29.1,21.2,30.02,NE,45,1.1,1.1,72,0.00,CLR,,0.00,WeatherDisplay:10.37,2013-03-15 12:19:00,
2013-03-15 08:24:00,30.2,21.9,30.02,NE,45,2.3,2.3,71,0.00,CLR,,0.00,WeatherDisplay:10.37,2013-03-15 12:24:00,
2013-03-15 08:29:00,31.5,22.5,30.02,NE,45,1.1,0.0,69,0.00,CLR,,0.00,WeatherDisplay:10.37,2013-03-15 12:29:00,
2013-03-15 08:34:00,32.4,23.0,30.02,NE,45,1.1,1.1,68,0.00,CLR,,0.00,WeatherDisplay:10.37,2013-03-15 12:34:00,
2013-03-15 08:39:00,33.4,22.9,30.01,NE,45,1.1,0.0,65,0.00,CLR,,0.00,WeatherDisplay:10.37,2013-03-15 12:39:00,
2013-03-15 08:44:00,34.3,23.4,30.01,NE,45,1.1,0.0,64,0.00,CLR,,0.00,WeatherDisplay:10.37,2013-03-15 12:44:00,
2013-03-15 08:49:00,34.7,23.0,30.01,NE,45,1.1,1.1,62,0.00,CLR,,0.00,WeatherDisplay:10.37,2013-03-15 12:49:00,
2013-03-15 08:54:00,35.2,23.1,30.01,NE,45,1.1,0.0,61,0.00,CLR,,0.00,WeatherDisplay:10.37,2013-03-15 12:54:00,
2013-03-15 08:59:00,36.0,23.0,30.01,SE,135,1.1,0.0,59,0.00,CLR,,0.00,WeatherDisplay:10.37,2013-03-15 12:59:00,
2013-03-15 09:04:00,36.9,23.0,30.01,East,90,2.3,2.3,57,0.00,CLR,,0.00,WeatherDisplay:10.37,2013-03-15 13:04:00,
2013-03-15 09:09:00,38.7,23.4,30.01,NE,45,2.3,2.3,54,0.00,CLR,,0.00,WeatherDisplay:10.37,2013-03-15 13:09:00,
2013-03-15 09:14:00,40.3,23.1,30.00,NE,45,2.3,2.3,50,0.00,CLR,,0.00,WeatherDisplay:10.37,2013-03-15 13:14:00,
2013-03-15 09:19:00,41.0,23.3,30.00,ENE,68,2.3,2.3,49,0.00,CLR,,0.00,WeatherDisplay:10.37,2013-03-15 13:19:00,
2013-03-15 09:24:00,41.9,23.1,30.00,North,0,3.5,3.5,47,0.00,CLR,,0.00,WeatherDisplay:10.37,2013-03-15 13:24:00,
2013-03-15 09:29:00,42.4,22.6,30.00,North,0,3.5,3.5,45,0.00,CLR,,0.00,WeatherDisplay:10.37,2013-03-15 13:29:00,
2013-03-15 09:34:00,43.0,22.0,30.00,NE,45,3.5,3.5,43,0.00,CLR,,0.00,WeatherDisplay:10.37,2013-03-15 13:34:00,
2013-03-15 09:39:00,43.2,21.6,30.00,NE,45,3.5,3.5,42,0.00,CLR,,0.00,WeatherDisplay:10.37,2013-03-15 13:39:00,
2013-03-15 09:44:00,43.7,20.9,29.99,NE,45,3.5,3.5,40,0.00,CLR,,0.00,WeatherDisplay:10.37,2013-03-15 13:44:00,
2013-03-15 09:49:00,44.4,22.2,29.99,East,90,3.5,3.5,41,0.00,CLR,,0.00,WeatherDisplay:10.37,2013-03-15 13:49:00,
2013-03-15 09:54:00,45.0,21.5,29.99,North,0,3.5,3.5,39,0.00,CLR,,0.00,WeatherDisplay:10.37,2013-03-15 13:54:00,
2013-03-15 09:59:00,45.1,21.0,29.99,NE,45,2.3,2.3,38,0.00,CLR,,0.00,WeatherDisplay:10.37,2013-03-15 13:59:00,
2013-03-15 10:04:00,45.7,20.2,29.98,East,90,4.6,4.6,36,0.00,FEW,,0.00,WeatherDisplay:10.37,2013-03-15 14:04:00,
2013-03-15 10:09:00,46.0,20.5,29.97,SE,135,4.6,4.6,36,0.00,FEW,,0.00,WeatherDisplay:10.37,2013-03-15 14:09:00,
2013-03-15 10:14:00,46.4,19.5,29.97,East,90,5.8,5.8,34,0.00,FEW,,0.00,WeatherDisplay:10.37,2013-03-15 14:14:00,
2013-03-15 10:19:00,46.6,19.0,29.97,East,90,4.6,4.6,33,0.00,FEW,,0.00,WeatherDisplay:10.37,2013-03-15 14:19:00,
2013-03-15 10:24:00,46.8,18.4,29.97,SE,135,5.8,5.8,32,0.00,FEW,,0.00,WeatherDisplay:10.37,2013-03-15 14:24:00,
2013-03-15 10:29:00,46.9,17.8,29.97,NE,45,6.9,6.9,31,0.00,FEW,,0.00,WeatherDisplay:10.37,2013-03-15 14:29:00,
2013-03-15 10:34:00,48.4,19.8,29.96,East,90,4.6,4.6,32,0.00,FEW,,0.00,WeatherDisplay:10.37,2013-03-15 14:34:00,
2013-03-15 10:39:00,48.7,19.4,29.96,East,90,5.8,5.8,31,0.00,FEW,,0.00,WeatherDisplay:10.37,2013-03-15 14:39:00,
2013-03-15 10:44:00,49.1,19.7,29.96,East,90,5.8,5.8,31,0.00,FEW,,0.00,WeatherDisplay:10.37,2013-03-15 14:44:00,
2013-03-15 10:49:00,49.5,20.0,29.96,East,90,4.6,4.6,31,0.00,FEW,,0.00,WeatherDisplay:10.37,2013-03-15 14:49:00,
2013-03-15 10:54:00,49.1,18.2,29.96,SE,135,9.2,9.2,29,0.00,FEW,,0.00,WeatherDisplay:10.37,2013-03-15 14:54:00,
2013-03-15 10:59:00,48.9,18.8,29.95,East,90,6.9,6.9,30,0.00,FEW,,0.00,WeatherDisplay:10.37,2013-03-15 14:59:00,
2013-03-15 11:04:00,48.9,18.0,29.95,SE,135,5.8,5.8,29,0.00,OVC,,0.00,WeatherDisplay:10.37,2013-03-15 15:04:00,
2013-03-15 11:09:00,48.9,18.0,29.95,SW,225,4.6,4.6,29,0.00,OVC,,0.00,WeatherDisplay:10.37,2013-03-15 15:09:00,
2013-03-15 11:14:00,48.6,18.5,29.95,East,90,5.8,5.8,30,0.00,OVC,,0.00,WeatherDisplay:10.37,2013-03-15 15:14:00,
2013-03-15 11:19:00,48.7,18.6,29.94,NE,45,5.8,5.8,30,0.00,OVC,,0.00,WeatherDisplay:10.37,2013-03-15 15:19:00,
2013-03-15 11:24:00,49.5,19.3,29.94,East,90,5.8,5.8,30,0.00,OVC,,0.00,WeatherDisplay:10.37,2013-03-15 15:24:00,
2013-03-15 11:29:00,49.8,18.8,29.94,NE,45,5.8,5.8,29,0.00,OVC,,0.00,WeatherDisplay:10.37,2013-03-15 15:29:00,
2013-03-15 11:34:00,50.0,19.7,29.94,SE,135,3.5,3.5,30,0.00,OVC,,0.00,WeatherDisplay:10.37,2013-03-15 15:34:00,
2013-03-15 11:39:00,50.4,19.3,29.93,South,180,4.6,4.6,29,0.00,OVC,,0.00,WeatherDisplay:10.37,2013-03-15 15:39:00,
2013-03-15 11:44:00,50.5,20.2,29.93,East,90,5.8,5.8,30,0.00,OVC,,0.00,WeatherDisplay:10.37,2013-03-15 15:44:00,
2013-03-15 11:49:00,50.9,18.9,29.93,NE,45,6.0,6.0,28,0.00,OVC,,0.00,WeatherDisplay:10.37,2013-03-15 15:49:00,
2013-03-15 11:54:00,50.9,18.9,29.92,East,90,5.8,5.8,28,0.00,OVC,,0.00,WeatherDisplay:10.37,2013-03-15 15:54:00,
2013-03-15 11:59:00,51.1,19.9,29.92,NW,315,3.5,3.5,29,0.00,OVC,,0.00,WeatherDisplay:10.37,2013-03-15 15:59:00,
2013-03-15 12:04:00,50.9,18.9,29.92,East,90,6.9,6.9,28,0.00,OVC,,0.00,WeatherDisplay:10.37,2013-03-15 16:04:00,
2013-03-15 12:09:00,51.3,20.0,29.92,East,90,5.8,5.8,29,0.00,OVC,,0.00,WeatherDisplay:10.37,2013-03-15 16:09:00,
2013-03-15 12:14:00,51.6,20.4,29.92,North,0,5.8,5.8,29,0.00,OVC,,0.00,WeatherDisplay:10.37,2013-03-15 16:14:00,
2013-03-15 12:19:00,52.5,21.1,29.91,East,90,4.5,4.5,29,0.00,CLR,,0.00,WeatherDisplay:10.37,2013-03-15 16:19:00,
2013-03-15 12:24:00,52.7,20.5,29.92,East,90,3.5,3.5,28,0.00,CLR,,0.00,WeatherDisplay:10.37,2013-03-15 16:24:00,
2013-03-15 12:29:00,52.5,21.1,29.91,NE,45,5.8,5.8,29,0.00,CLR,,0.00,WeatherDisplay:10.37,2013-03-15 16:29:00,
2013-03-15 12:34:00,52.2,20.0,29.91,SW,225,5.8,5.8,28,0.00,CLR,,0.00,WeatherDisplay:10.37,2013-03-15 16:34:00,
2013-03-15 12:39:00,52.2,20.8,29.91,NE,45,3.5,3.5,29,0.00,CLR,,0.00,WeatherDisplay:10.37,2013-03-15 16:39:00,
2013-03-15 12:44:00,52.5,21.9,29.91,ENE,68,5.8,5.8,30,0.00,CLR,,0.00,WeatherDisplay:10.37,2013-03-15 16:44:00,
2013-03-15 12:49:00,53.2,21.8,29.90,NE,45,5.8,5.8,29,0.00,CLR,,0.00,WeatherDisplay:10.37,2013-03-15 16:49:00,
2013-03-15 12:54:00,54.0,22.4,29.90,SE,135,5.4,5.4,29,0.00,CLR,,0.00,WeatherDisplay:10.37,2013-03-15 16:54:00,
2013-03-15 12:59:00,54.1,21.7,29.90,NE,45,4.6,4.6,28,0.00,CLR,,0.00,WeatherDisplay:10.37,2013-03-15 16:59:00,
2013-03-15 13:04:00,54.3,21.9,29.89,SE,135,5.8,5.8,28,0.00,CLR,,0.00,WeatherDisplay:10.37,2013-03-15 17:04:00,
2013-03-15 13:09:00,54.1,21.7,29.90,NE,45,5.8,5.8,28,0.00,CLR,,0.00,WeatherDisplay:10.37,2013-03-15 17:09:00,
2013-03-15 13:14:00,54.0,21.6,29.89,South,180,3.5,3.5,28,0.00,CLR,,0.00,WeatherDisplay:10.37,2013-03-15 17:14:00,
2013-03-15 13:19:00,54.5,22.0,29.89,East,90,5.8,5.8,28,0.00,BKN,,0.00,WeatherDisplay:10.37,2013-03-15 17:19:00,
2013-03-15 13:24:00,55.4,22.8,29.88,SE,135,3.5,3.5,28,0.00,BKN,,0.00,WeatherDisplay:10.37,2013-03-15 17:24:00,
2013-03-15 13:29:00,56.5,23.7,29.88,NE,45,3.5,3.5,28,0.00,BKN,,0.00,WeatherDisplay:10.37,2013-03-15 17:29:00,
2013-03-15 13:34:00,57.2,23.5,29.88,East,90,4.6,4.6,27,0.00,BKN,,0.00,WeatherDisplay:10.37,2013-03-15 17:34:00,
2013-03-15 13:39:00,55.9,21.5,29.88,SE,135,5.8,5.8,26,0.00,BKN,,0.00,WeatherDisplay:10.37,2013-03-15 17:39:00,
2013-03-15 13:44:00,54.3,22.7,29.87,SE,135,3.5,3.5,29,0.00,BKN,,0.00,WeatherDisplay:10.37,2013-03-15 17:44:00,
2013-03-15 13:49:00,53.2,23.3,29.87,South,180,4.6,4.6,31,0.00,BKN,,0.00,WeatherDisplay:10.37,2013-03-15 17:49:00,
2013-03-15 13:54:00,52.5,22.7,29.86,East,90,4.6,4.6,31,0.00,BKN,,0.00,WeatherDisplay:10.37,2013-03-15 17:54:00,
2013-03-15 13:59:00,52.3,24.0,29.86,East,90,6.9,6.9,33,0.00,BKN,,0.00,WeatherDisplay:10.37,2013-03-15 17:59:00,
2013-03-15 14:04:00,52.5,24.2,29.85,SE,135,3.5,3.5,33,0.00,OVC,,0.00,WeatherDisplay:10.37,2013-03-15 18:04:00,
2013-03-15 14:09:00,52.7,25.1,29.85,SE,135,3.5,3.5,34,0.00,OVC,,0.00,WeatherDisplay:10.37,2013-03-15 18:09:00,
2013-03-15 14:14:00,53.2,25.6,29.85,East,90,4.6,4.6,34,0.00,OVC,,0.00,WeatherDisplay:10.37,2013-03-15 18:14:00,
2013-03-15 14:19:00,55.8,27.8,29.84,SE,135,5.8,5.8,34,0.00,SCT,,0.00,WeatherDisplay:10.37,2013-03-15 18:19:00,
2013-03-15 14:24:00,57.6,26.3,29.84,NE,45,4.6,4.6,30,0.00,SCT,,0.00,WeatherDisplay:10.37,2013-03-15 18:24:00,
2013-03-15 14:29:00,58.3,26.9,29.83,East,90,4.6,4.6,30,0.00,SCT,,0.00,WeatherDisplay:10.37,2013-03-15 18:29:00,
2013-03-15 14:34:00,59.0,27.6,29.83,East,90,5.8,5.8,30,0.00,SCT,,0.00,WeatherDisplay:10.37,2013-03-15 18:34:00,
2013-03-15 14:39:00,59.4,27.1,29.82,South,180,6.9,6.9,29,0.00,SCT,,0.00,WeatherDisplay:10.37,2013-03-15 18:39:00,
2013-03-15 14:44:00,59.4,27.1,29.82,South,180,5.8,5.8,29,0.00,SCT,,0.00,WeatherDisplay:10.37,2013-03-15 18:44:00,
2013-03-15 14:49:00,59.5,28.0,29.82,East,90,4.6,4.6,30,0.00,SCT,,0.00,WeatherDisplay:10.37,2013-03-15 18:49:00,
2013-03-15 14:54:00,59.7,27.4,29.81,East,90,6.9,6.9,29,0.00,SCT,,0.00,WeatherDisplay:10.37,2013-03-15 18:54:00,
2013-03-15 14:59:00,59.5,27.2,29.81,SE,135,4.6,4.6,29,0.00,SCT,,0.00,WeatherDisplay:10.37,2013-03-15 18:59:00,
2013-03-15 15:04:00,58.3,26.9,29.81,East,90,3.5,3.5,30,0.00,SCT,,0.00,WeatherDisplay:10.37,2013-03-15 19:04:00,
2013-03-15 15:09:00,59.0,28.4,29.80,East,90,3.5,3.5,31,0.00,SCT,,0.00,WeatherDisplay:10.37,2013-03-15 19:09:00,
2013-03-15 15:14:00,59.4,27.9,29.81,East,90,3.5,3.5,30,0.00,SCT,,0.00,WeatherDisplay:10.37,2013-03-15 19:14:00,
2013-03-15 15:19:00,59.7,28.2,29.80,NE,45,4.6,4.6,30,0.00,FEW,,0.00,WeatherDisplay:10.37,2013-03-15 19:19:00,
2013-03-15 15:24:00,59.7,29.0,29.80,East,90,5.8,5.8,31,0.00,FEW,,0.00,WeatherDisplay:10.37,2013-03-15 19:24:00,
2013-03-15 15:29:00,59.4,31.0,29.80,East,90,5.8,5.8,34,0.00,FEW,,0.00,WeatherDisplay:10.37,2013-03-15 19:29:00,
2013-03-15 15:34:00,59.4,32.4,29.79,East,90,5.8,5.8,36,0.00,FEW,,0.00,WeatherDisplay:10.37,2013-03-15 19:34:00,
2013-03-15 15:39:00,59.5,31.8,29.79,SE,135,4.6,4.6,35,0.00,FEW,,0.00,WeatherDisplay:10.37,2013-03-15 19:39:00,
2013-03-15 15:44:00,60.1,32.3,29.79,East,90,5.8,5.8,35,0.00,FEW,,0.00,WeatherDisplay:10.37,2013-03-15 19:44:00,
2013-03-15 15:49:00,59.7,31.3,29.79,East,90,4.6,4.6,34,0.00,FEW,,0.00,WeatherDisplay:10.37,2013-03-15 19:49:00,
2013-03-15 15:54:00,59.7,32.0,29.78,SE,135,3.5,3.5,35,0.00,FEW,,0.00,WeatherDisplay:10.37,2013-03-15 19:54:00,
2013-03-15 15:59:00,60.1,32.3,29.78,South,180,5.8,5.8,35,0.00,FEW,,0.00,WeatherDisplay:10.37,2013-03-15 19:59:00,
2013-03-15 16:04:00,59.7,32.7,29.78,SE,135,5.8,5.8,36,0.00,FEW,,0.00,WeatherDisplay:10.37,2013-03-15 20:04:00,
2013-03-15 16:09:00,59.5,33.2,29.78,SE,135,5.8,5.8,37,0.00,FEW,,0.00,WeatherDisplay:10.37,2013-03-15 20:09:00,
2013-03-15 16:14:00,59.5,33.2,29.78,NE,45,5.8,5.8,37,0.00,FEW,,0.00,WeatherDisplay:10.37,2013-03-15 20:14:00,
2013-03-15 16:19:00,59.2,33.6,29.78,SE,135,9.2,9.2,38,0.00,BKN,,0.00,WeatherDisplay:10.37,2013-03-15 20:19:00,
2013-03-15 16:24:00,58.6,33.1,29.77,East,90,5.8,5.8,38,0.00,BKN,,0.00,WeatherDisplay:10.37,2013-03-15 20:24:00,
2013-03-15 16:29:00,58.6,33.7,29.77,SE,135,10.4,10.4,39,0.00,BKN,,0.00,WeatherDisplay:10.37,2013-03-15 20:29:00,
2013-03-15 16:34:00,59.0,34.7,29.77,SE,135,3.5,3.5,40,0.00,BKN,,0.00,WeatherDisplay:10.37,2013-03-15 20:34:00,
2013-03-15 16:39:00,59.0,33.4,29.77,ESE,112,9.2,9.2,38,0.00,BKN,,0.00,WeatherDisplay:10.37,2013-03-15 20:39:00,
2013-03-15 16:44:00,58.5,33.6,29.77,SE,135,8.1,8.1,39,0.00,BKN,,0.00,WeatherDisplay:10.37,2013-03-15 20:44:00,
2013-03-15 16:49:00,58.5,34.2,29.77,East,90,5.8,5.8,40,0.00,BKN,,0.00,WeatherDisplay:10.37,2013-03-15 20:49:00,
2013-03-15 16:54:00,58.5,34.2,29.77,East,90,8.1,8.1,40,0.00,BKN,,0.00,WeatherDisplay:10.37,2013-03-15 20:54:00,
2013-03-15 16:59:00,58.1,33.9,29.77,SSE,158,9.2,9.2,40,0.00,BKN,,0.00,WeatherDisplay:10.37,2013-03-15 20:59:00,
2013-03-15 17:04:00,58.1,33.9,29.77,East,90,5.8,5.8,40,0.00,CLR,,0.00,WeatherDisplay:10.37,2013-03-15 21:04:00,
2013-03-15 17:09:00,58.3,34.7,29.77,SE,135,4.6,4.6,41,0.00,CLR,,0.00,WeatherDisplay:10.37,2013-03-15 21:09:00,
2013-03-15 17:14:00,58.3,34.7,29.77,South,180,4.6,4.6,41,0.00,CLR,,0.00,WeatherDisplay:10.37,2013-03-15 21:14:00,
2013-03-15 17:19:00,58.5,34.8,29.77,East,90,5.8,5.8,41,0.00,CLR,,0.00,WeatherDisplay:10.37,2013-03-15 21:19:00,
2013-03-15 17:24:00,58.3,34.7,29.76,SE,135,5.8,5.8,41,0.00,CLR,,0.00,WeatherDisplay:10.37,2013-03-15 21:24:00,
2013-03-15 17:29:00,58.3,34.7,29.76,East,90,5.8,5.8,41,0.00,CLR,,0.00,WeatherDisplay:10.37,2013-03-15 21:29:00,
2013-03-15 17:34:00,58.3,34.0,29.76,SE,135,6.9,6.9,40,0.00,CLR,,0.00,WeatherDisplay:10.37,2013-03-15 21:34:00,
2013-03-15 17:39:00,58.3,34.0,29.76,SE,135,5.8,5.8,40,0.00,CLR,,0.00,WeatherDisplay:10.37,2013-03-15 21:39:00,
2013-03-15 17:44:00,58.3,34.0,29.76,South,180,6.9,6.9,40,0.00,CLR,,0.00,WeatherDisplay:10.37,2013-03-15 21:44:00,
2013-03-15 17:49:00,58.3,33.4,29.75,SE,135,5.8,5.8,39,0.00,CLR,,0.00,WeatherDisplay:10.37,2013-03-15 21:49:00,
2013-03-15 17:54:00,58.3,34.0,29.76,South,180,4.6,4.6,40,0.00,CLR,,0.00,WeatherDisplay:10.37,2013-03-15 21:54:00,
2013-03-15 17:59:00,58.1,33.2,29.76,South,180,8.1,8.1,39,0.00,CLR,,0.00,WeatherDisplay:10.37,2013-03-15 21:59:00,
2013-03-15 18:04:00,57.7,33.6,29.76,South,180,5.8,5.8,40,0.00,CLR,,0.00,WeatherDisplay:10.37,2013-03-15 22:04:00,
2013-03-15 18:09:00,57.6,33.4,29.76,South,180,5.8,5.8,40,0.00,CLR,,0.00,WeatherDisplay:10.37,2013-03-15 22:09:00,
2013-03-15 18:14:00,57.4,33.2,29.76,SSE,158,4.6,4.6,40,0.00,CLR,,0.00,WeatherDisplay:10.37,2013-03-15 22:14:00,
2013-03-15 18:19:00,57.2,33.7,29.75,South,180,4.6,4.6,41,0.00,CLR,,0.00,WeatherDisplay:10.37,2013-03-15 22:19:00,
2013-03-15 18:24:00,57.2,33.7,29.76,SE,135,8.1,8.1,41,0.00,CLR,,0.00,WeatherDisplay:10.37,2013-03-15 22:24:00,
2013-03-15 18:29:00,57.0,33.5,29.76,SE,135,3.8,3.8,41,0.00,CLR,,0.00,WeatherDisplay:10.37,2013-03-15 22:29:00,
2013-03-15 18:34:00,57.0,33.5,29.76,SE,135,4.6,4.6,41,0.00,CLR,,0.00,WeatherDisplay:10.37,2013-03-15 22:34:00,
2013-03-15 18:39:00,56.8,33.4,29.76,East,90,5.8,5.8,41,0.00,CLR,,0.00,WeatherDisplay:10.37,2013-03-15 22:39:00,
2013-03-15 18:44:00,56.7,33.8,29.76,SE,135,3.5,3.5,42,0.00,CLR,,0.00,WeatherDisplay:10.37,2013-03-15 22:44:00,
2013-03-15 18:49:00,56.3,33.5,29.76,South,180,4.6,4.6,42,0.00,CLR,,0.00,WeatherDisplay:10.37,2013-03-15 22:49:00,
2013-03-15 18:54:00,56.1,33.3,29.76,South,180,5.8,5.8,42,0.00,CLR,,0.00,WeatherDisplay:10.37,2013-03-15 22:54:00,
2013-03-15 18:59:00,55.9,33.7,29.77,East,90,3.5,3.5,43,0.00,CLR,,0.00,WeatherDisplay:10.37,2013-03-15 22:59:00,
2013-03-15 19:04:00,55.8,33.6,29.77,SE,135,3.5,3.5,43,0.00,CLR,,0.00,WeatherDisplay:10.37,2013-03-15 23:04:00,
2013-03-15 19:09:00,55.6,33.4,29.77,SE,135,5.8,5.8,43,0.00,CLR,,0.00,WeatherDisplay:10.37,2013-03-15 23:09:00,
2013-03-15 19:14:00,55.2,33.1,29.77,SE,135,3.5,3.5,43,0.00,CLR,,0.00,WeatherDisplay:10.37,2013-03-15 23:14:00,
2013-03-15 19:19:00,55.2,33.1,29.78,South,180,2.3,2.3,43,0.00,CLR,,0.00,WeatherDisplay:10.37,2013-03-15 23:19:00,
2013-03-15 19:24:00,55.0,32.9,29.78,South,180,5.8,5.8,43,0.00,CLR,,0.00,WeatherDisplay:10.37,2013-03-15 23:24:00,
2013-03-15 19:29:00,54.9,33.3,29.78,SE,135,3.5,3.5,44,0.00,CLR,,0.00,WeatherDisplay:10.37,2013-03-15 23:29:00,
2013-03-15 19:34:00,54.7,33.2,29.78,SE,135,2.3,2.3,44,0.00,CLR,,0.00,WeatherDisplay:10.37,2013-03-15 23:34:00,
2013-03-15 19:39:00,54.5,33.0,29.78,SE,135,4.6,4.6,44,0.00,CLR,,0.00,WeatherDisplay:10.37,2013-03-15 23:39:00,
2013-03-15 19:44:00,54.3,33.4,29.78,SE,135,5.8,5.8,45,0.00,CLR,,0.00,WeatherDisplay:10.37,2013-03-15 23:44:00,
2013-03-15 19:49:00,54.1,33.2,29.78,SE,135,3.5,3.5,45,0.00,CLR,,0.00,WeatherDisplay:10.37,2013-03-15 23:49:00,
2013-03-15 19:54:00,54.0,33.1,29.79,East,90,3.5,3.5,45,0.00,CLR,,0.00,WeatherDisplay:10.37,2013-03-15 23:54:00,
2013-03-15 19:59:00,54.0,33.1,29.78,South,180,3.5,3.5,45,0.00,CLR,,0.00,WeatherDisplay:10.37,2013-03-15 23:59:00,
2013-03-15 20:04:00,53.8,32.9,29.78,East,90,2.3,2.3,45,0.00,SCT,,0.00,WeatherDisplay:10.37,2013-03-16 00:04:00,
2013-03-15 20:09:00,53.6,32.8,29.78,South,180,3.5,3.5,45,0.00,SCT,,0.00,WeatherDisplay:10.37,2013-03-16 00:09:00,
2013-03-15 20:14:00,53.4,33.1,29.78,SE,135,3.5,3.5,46,0.00,SCT,,0.00,WeatherDisplay:10.37,2013-03-16 00:14:00,
2013-03-15 20:19:00,53.4,33.1,29.79,South,180,3.5,3.5,46,0.00,SCT,,0.00,WeatherDisplay:10.37,2013-03-16 00:19:00,
2013-03-15 20:24:00,53.2,33.0,29.79,SE,135,3.5,3.5,46,0.00,SCT,,0.00,WeatherDisplay:10.37,2013-03-16 00:24:00,
2013-03-15 20:29:00,53.1,32.8,29.80,SE,135,3.5,3.5,46,0.00,SCT,,0.00,WeatherDisplay:10.37,2013-03-16 00:29:00,
2013-03-15 20:34:00,52.9,33.2,29.80,ESE,112,3.5,3.5,47,0.00,SCT,,0.00,WeatherDisplay:10.37,2013-03-16 00:34:00,
2013-03-15 20:39:00,52.9,33.2,29.80,SSW,202,3.5,3.5,47,0.00,SCT,,0.00,WeatherDisplay:10.37,2013-03-16 00:39:00,
2013-03-15 20:44:00,52.7,33.0,29.80,ESE,112,3.5,3.5,47,0.00,SCT,,0.00,WeatherDisplay:10.37,2013-03-16 00:44:00,
2013-03-15 20:49:00,52.5,32.9,29.80,South,180,3.5,3.5,47,0.00,SCT,,0.00,WeatherDisplay:10.37,2013-03-16 00:49:00,
2013-03-15 20:54:00,52.3,32.7,29.80,East,90,1.1,0.0,47,0.00,SCT,,0.00,WeatherDisplay:10.37,2013-03-16 00:54:00,
2013-03-15 20:59:00,52.0,32.9,29.80,South,180,1.1,0.0,48,0.00,SCT,,0.00,WeatherDisplay:10.37,2013-03-16 00:59:00,
2013-03-15 21:04:00,51.6,33.1,29.80,NE,45,1.1,1.1,49,0.00,CLR,,0.00,WeatherDisplay:10.37,2013-03-16 01:04:00,
2013-03-15 21:09:00,51.3,32.7,29.80,South,180,1.1,0.0,49,0.00,CLR,,0.00,WeatherDisplay:10.37,2013-03-16 01:09:00,
2013-03-15 21:14:00,51.1,32.6,29.80,SE,135,1.1,0.0,49,0.00,CLR,,0.00,WeatherDisplay:10.37,2013-03-16 01:14:00,
2013-03-15 21:19:00,50.5,32.6,29.80,SE,135,0.0,0.0,50,0.00,CLR,,0.00,WeatherDisplay:10.37,2013-03-16 01:19:00,
2013-03-15 21:24:00,50.2,32.7,29.80,SE,135,1.1,0.0,51,0.00,CLR,,0.00,WeatherDisplay:10.37,2013-03-16 01:24:00,
2013-03-15 21:29:00,50.0,33.1,29.80,North,0,1.1,0.0,52,0.00,CLR,,0.00,WeatherDisplay:10.37,2013-03-16 01:29:00,
2013-03-15 21:34:00,49.8,32.9,29.80,NW,315,1.1,1.1,52,0.00,CLR,,0.00,WeatherDisplay:10.37,2013-03-16 01:34:00,
2013-03-15 21:39:00,49.6,32.7,29.80,NW,315,0.0,0.0,52,0.00,CLR,,0.00,WeatherDisplay:10.37,2013-03-16 01:39:00,
2013-03-15 21:44:00,49.3,32.4,29.80,NW,315,0.0,0.0,52,0.00,CLR,,0.00,WeatherDisplay:10.37,2013-03-16 01:44:00,
2013-03-15 21:49:00,48.9,32.5,29.79,NW,315,0.0,0.0,53,0.00,CLR,,0.00,WeatherDisplay:10.37,2013-03-16 01:49:00,
2013-03-15 21:54:00,48.6,32.7,29.79,NW,315,0.0,0.0,54,0.00,CLR,,0.00,WeatherDisplay:10.37,2013-03-16 01:54:00,
2013-03-15 21:59:00,48.4,32.5,29.79,North,0,0.0,0.0,54,0.00,CLR,,0.00,WeatherDisplay:10.37,2013-03-16 01:59:00,
2013-03-15 22:04:00,48.2,32.8,29.80,North,0,0.0,0.0,55,0.00,CLR,,0.00,WeatherDisplay:10.37,2013-03-16 02:04:00,
2013-03-15 22:09:00,48.0,32.6,29.80,North,0,0.0,0.0,55,0.00,CLR,,0.00,WeatherDisplay:10.37,2013-03-16 02:09:00,
2013-03-15 22:14:00,48.0,33.1,29.80,North,0,0.0,0.0,56,0.00,CLR,,0.00,WeatherDisplay:10.37,2013-03-16 02:14:00,
2013-03-15 22:19:00,48.0,33.1,29.80,North,0,0.0,0.0,56,0.00,CLR,,0.00,WeatherDisplay:10.37,2013-03-16 02:19:00,
2013-03-15 22:24:00,47.8,32.9,29.80,North,0,1.6,1.6,56,0.00,CLR,,0.00,WeatherDisplay:10.37,2013-03-16 02:24:00,
2013-03-15 22:29:00,47.8,33.3,29.80,NW,315,2.3,2.3,57,0.00,CLR,,0.00,WeatherDisplay:10.37,2013-03-16 02:29:00,
2013-03-15 22:34:00,47.8,32.9,29.79,NW,315,2.3,2.3,56,0.00,CLR,,0.00,WeatherDisplay:10.37,2013-03-16 02:34:00,
2013-03-15 22:39:00,48.0,33.1,29.80,North,0,2.3,2.3,56,0.00,CLR,,0.00,WeatherDisplay:10.37,2013-03-16 02:39:00,
2013-03-15 22:44:00,48.0,33.1,29.79,NW,315,1.6,1.6,56,0.00,CLR,,0.00,WeatherDisplay:10.37,2013-03-16 02:44:00,
2013-03-15 22:49:00,48.0,33.1,29.80,NW,315,2.3,2.3,56,0.00,CLR,,0.00,WeatherDisplay:10.37,2013-03-16 02:49:00,
2013-03-15 22:54:00,48.0,33.1,29.79,NW,315,2.3,2.3,56,0.00,CLR,,0.00,WeatherDisplay:10.37,2013-03-16 02:54:00,
2013-03-15 22:59:00,47.8,33.3,29.79,North,0,1.1,0.0,57,0.00,CLR,,0.00,WeatherDisplay:10.37,2013-03-16 02:59:00,
2013-03-15 23:04:00,47.3,32.8,29.79,NW,315,0.0,0.0,57,0.00,CLR,,0.00,WeatherDisplay:10.37,2013-03-16 03:04:00,
2013-03-15 23:09:00,46.8,33.2,29.79,NW,315,0.0,0.0,59,0.00,CLR,,0.00,WeatherDisplay:10.37,2013-03-16 03:09:00,
2013-03-15 23:14:00,46.2,33.1,29.79,North,0,1.1,0.0,60,0.00,CLR,,0.00,WeatherDisplay:10.37,2013-03-16 03:14:00,
2013-03-15 23:19:00,46.0,32.9,29.79,North,0,0.0,0.0,60,0.00,CLR,,0.00,WeatherDisplay:10.37,2013-03-16 03:19:00,
2013-03-15 23:24:00,45.5,32.8,29.79,North,0,1.1,1.1,61,0.00,CLR,,0.00,WeatherDisplay:10.37,2013-03-16 03:24:00,
2013-03-15 23:29:00,45.3,32.7,29.79,NW,315,1.1,0.0,61,0.00,CLR,,0.00,WeatherDisplay:10.37,2013-03-16 03:29:00,
2013-03-15 23:34:00,44.8,32.5,29.79,NW,315,0.0,0.0,62,0.00,CLR,,0.00,WeatherDisplay:10.37,2013-03-16 03:34:00,
2013-03-15 23:39:00,44.2,32.4,29.79,NW,315,0.0,0.0,63,0.00,CLR,,0.00,WeatherDisplay:10.37,2013-03-16 03:39:00,
2013-03-15 23:44:00,43.7,32.7,29.79,NW,315,0.0,0.0,65,0.00,CLR,,0.00,WeatherDisplay:10.37,2013-03-16 03:44:00,
2013-03-15 23:49:00,43.3,32.7,29.79,NW,315,0.0,0.0,66,0.00,CLR,,0.00,WeatherDisplay:10.37,2013-03-16 03:49:00,
2013-03-15 23:54:00,43.0,32.8,29.79,NW,315,0.0,0.0,67,0.00,CLR,,0.00,WeatherDisplay:10.37,2013-03-16 03:54:00,
2013-03-15 23:59:00,42.8,33.0,29.79,NW,315,0.0,0.0,68,0.00,CLR,,0.00,WeatherDisplay:10.37,2013-03-16 03:59:00,